TshepisoSat

operational
NORAD ID: 39417 Int'l Des: 2013-066 Owner: CPUT Country: ZA
LEOCIRCULARRETROGRADESSO

About TshepisoSat

Description loading...

Live Position

Loading 3D Globe...

Upcoming Passes

Altitude History

Altitude vs Time

uPlot chart will show altitude changes over time

Two-Line Element Set

1 39417U 13066B 25345.45689729 .00008687 00000-0 70735-3 0 9993
2 39417 97.8070 302.0001 0041874 151.0271 209.3289 14.99068100652581
Epoch: Dec 11, 2025 • Age: 13 hours

Current Status

Altitude 552.4 km
Velocity 7.61 km/s
Sub-Earth Point 55.00°N, 47.82°E
Launch Date Nov 21, 2013
Age 12 years
Type other

Technical Details

Classification Payload
Mass 1.20 kg
Dry Mass 1.20 kg
Total Mass 1.20 kg
Length 0.10 m
Diameter 0.10 m
Span 0.10 m
Shape Box
Manufacturer CPUT
Bus Type Cubesat 1U
Phase Status In Orbit
Owner/State CPUT/ZA

Large Constellations

Loading constellations...